Location: Axtheid
(49.6213°N, 11.8205°E)
Time: 15:29:37
(UTC+00:00)

USA 116 - Pass Details

Date: 18 February 2020
Orbit: 405 x 834 km, 97.9° (Epoch: 18 November)

Event Time Altitude Azimuth Distance (km) Brightness Sun altitude
Rises 04:19:42 0° 152° (SSE) 2,395 7.3 -19.8°
Reaches altitude 10° 04:21:46 10° 146° (SE) 1,502 6.3 -19.5°
Maximum altitude 04:24:49 46° 72° (ENE) 561 4.2 -19.0°
Drops below altitude 10° 04:27:48 10° 357° (N) 1,478 5.9 -18.5°
Sets 04:29:50 0° 352° (N) 2,351 6.9 -18.2°
